* Astronomy

Members Login
Username 
 
Password 
    Remember Me  
Post Info TOPIC: Asteroid 2011 WE32


L

Posts: 131433
Date:
Asteroid 2011 WE32
Permalink  
 


Orbital elements:
2011 WE32                                                Earth MOID = 0.2824 AU
Epoch 2011 Aug. 27.0 TT = JDT 2455800.5                 MPC
M 349.91154              (2000.0)            P               Q
n   0.26507592     Peri.  145.64863     +0.88879876     -0.32814502
a   2.4000624      Node   236.72729     +0.28499682     +0.94243924
e   0.4878866      Incl.   22.49882     +0.35890609     +0.06425830
P   3.72           H   20.3           G   0.15           U   8

MPEC 2011 - W44



__________________
Page 1 of 1  sorted by
 
Quick Reply

Please log in to post quick replies.



Create your own FREE Forum
Report Abuse
Powered by ActiveBoard